Regional Weather Roundup
Issued by NWS

Home | Current Version | Previous Version | Graphics & Text | Print | Product List | Glossary On
Versions: 1 2 3 4 5 6 7 8 9 10 11 12 13 14 15 16 17 18 19 20 21 22 23 24 25 26 27 28 29 30 31 32 33 34 35 36 37 38 39 40 41 42 43 44 45 46 47 48 49 50
000
ASUS43 KFSD 050910
RWRSD

WEATHER ROUNDUP FOR SOUTH DAKOTA
NATIONAL WEATHER SERVICE SIOUX FALLS SD
300 AM CST MON DEC 05 2016

NOTE: "FAIR" INDICATES FEW OR NO CLOUDS BELOW 12,000 FEET WITH NO
SIGNIFICANT WEATHER AND/OR OBSTRUCTIONS TO VISIBILITY.


SDZ001>005-009-010-012>017-051000-
NORTHWEST AND NORTH CENTRAL SOUTH DAKOTA

CITY           SKY/WX    TMP DP  RH WIND       PRES   REMARKS
BUFFALO          N/A     31  22  69 NW8       29.44F WCI  23
FAITH            N/A     25  20  81 S17       29.50S WCI  12
MOBRIDGE       CLOUDY    30  21  69 E10       29.54F WCI  21
$$

SDZ012>016-024>037-041>051-057-063-072>074-051000-
SOUTHWEST AND SOUTH CENTRAL SOUTH DAKOTA

CITY           SKY/WX    TMP DP  RH WIND       PRES   REMARKS
RAPID CTY ARPT CLOUDY    33  20  58 CALM      29.50S
PIERRE         PTCLDY    30  25  81 SE9       29.54F WCI  22
CUSTER         CLOUDY    34  19  54 W7        29.50F WCI  28
ELLSWORTH AFB  MOCLDY    32  21  63 CALM      29.49S
PHILIP         CLOUDY    29  25  85 CALM      29.52F
PINE RIDGE     PTCLDY    35  24  64 W3        29.55F
SPEARFISH      CLOUDY    41  25  52 W20G41    29.51R
WINNER         FAIR      37  20  50 SW10      29.56S
$$

SDZ004>011-016>023-039-040-051000-
NORTHEAST SOUTH DAKOTA

CITY           SKY/WX    TMP DP  RH WIND       PRES   REMARKS
ABERDEEN       CLOUDY    29  25  85 SE8       29.64F WCI  21
WATERTOWN      CLOUDY    31  27  85 SE8       29.66F WCI  23
BROOKINGS      CLOUDY    32  30  92 SE12      29.67F WCI  23
SISSETON         N/A     28  24  85 SE8       29.68F WCI  20
$$

SDZ017-020-022-023-036>040-048>070-051000-
SOUTHEAST SOUTH DAKOTA

CITY           SKY/WX    TMP DP  RH WIND       PRES   REMARKS
SIOUX FALLS    CLOUDY    34  30  85 SE5       29.70F WCI  30
HURON          CLOUDY    33  29  85 SE10      29.62F WCI  25
CHAMBERLAIN    CLOUDY    32  28  86 E6        29.58F WCI  26
MITCHELL       CLOUDY    34  28  79 SE12      29.64F WCI  25
YANKTON        MOCLDY    34  25  69 SE5       29.68F WCI  30
$$

ABBREVIATIONS USED IN REMARKS
   TC - TEMPERATURE IN CELSIUS
  WCI - WIND CHILL INDEX
   HX - HEAT INDEX
  VSB - VISIBILITY





USA.gov is the U.S. government's official web portal to all federal, state and local government web resources and services.